Location: Unspecified
(43.4680°N, 87.1740°E)
Time: 21:09:10
(UTC+00:00)

Cosmos 1908 Rocket - Pass Details

Date: 17 April 2021
Orbit: 607 x 631 km, 82.5° (Epoch: 11 May)

Event Time Altitude Azimuth Distance (km) Brightness Sun altitude
Rises 21:14:06 0° 344° (NNW) 2,907 7.3 -21.6°
Reaches altitude 10° 21:16:26 10° 336° (NNW) 2,001 6.4 -21.3°
Enters shadow 21:20:01 37° 287° (WNW) 971 4.2 -20.8°
